SAUDISAT 1C (SO-50)

Last updated on Wed Sep 09 2026 00:03:15 GMT+0000 (Coordinated Universal Time)

1 27607U 02058C 26251.36239561 .00000751 00000+0 10606-3 0 9996 2 27607 64.5508 231.6104 0072350 247.2210 112.1242 14.83200645276791
UTC large
Height (km)
Speed (km/s)
/
Latitude / Longitude
Inclination (degrees)
Orbital Period (minutes)
Azimuth
Elevation
Range (km)
Doppler Factor

Next 0 passes for location: London (51.5072 / 0.1276)

No passes found over London.
SAUDISAT 1C (SO-50)